Location: Newberry Star Park
(29.6730°N, 82.6011°W)
Time: 10:53:30
(UTC-04:00)

Tiangong 2 - Visible Passes

Search period start: 22 July 2018 00:00
Search period end: 01 August 2018 00:00
Orbit: 386 x 394 km, 42.8° (Epoch: 22 July)

Date Brightness Start Highest point End Pass type
(mag) Time Alt. Az. Time Alt. Az. Time Alt. Az.
22 Jul 3.8 21:21:06 10° N 21:22:27 12° NNE 21:23:47 10° NE visible
22 Jul 3.9 22:56:42 10° NW 22:57:47 19° NW 22:57:47 19° NW visible
23 Jul 2.5 21:59:12 10° NW 22:02:01 28° NNE 22:02:33 26° NE visible
24 Jul 3.3 21:01:51 10° NNW 21:04:08 18° NNE 21:06:25 10° ENE visible
24 Jul 3.2 22:38:04 10° WNW 22:39:40 27° WNW 22:39:40 27° WNW visible
25 Jul 1.3 21:40:21 10° NW 21:43:30 59° NNE 21:44:32 36° E visible
26 Jul 3.1 22:19:48 10° W 22:21:46 23° WSW 22:21:46 23° WSW visible
27 Jul 1.5 21:21:42 10° WNW 21:24:51 55° SW 21:26:44 21° SE visible
28 Jul 3.8 22:02:47 10° WSW 22:03:38 11° SW 22:04:08 11° SW visible
29 Jul 3.1 21:03:30 10° W 21:06:04 22° SW 21:08:36 10° SSE visible
